Location: Unspecified
(0.0000°N, 0.0000°E)
Time: 18:01:59
(UTC+00:00)

Courier 1B Rocket - Visible Passes

Search period start: 18 June 2019 00:00
Search period end: 28 June 2019 00:00
Orbit: 920 x 1202 km, 28.2° (Epoch: 17 June)

Date Brightness Start Highest point End Pass type
(mag) Time Alt. Az. Time Alt. Az. Time Alt. Az.
18 Jun 7.5 02:18:06 15° NE 02:18:06 15° NE 02:19:02 10° NE visible
18 Jun 6.6 04:04:27 20° NW 04:05:53 22° NNW 04:10:48 10° NNE visible
19 Jun 6.7 03:07:04 26° N 03:07:04 26° N 03:10:39 10° NNE visible
20 Jun 7.7 02:09:39 12° NE 02:09:39 12° NE 02:10:10 10° NE visible
20 Jun 7.1 03:56:00 14° NW 03:57:27 15° NNW 04:01:00 10° N visible
21 Jun 7.1 02:58:33 19° N 02:58:33 19° N 03:01:17 10° NNE visible
23 Jun 7.5 02:49:54 13° N 02:49:54 13° N 02:51:32 10° N visible
25 Jun 7.0 19:50:12 10° SSW 19:52:32 15° S 19:52:32 15° S visible
26 Jun 7.0 18:50:33 10° S 18:53:27 12° SSE 18:55:46 11° SE visible
26 Jun 7.3 20:41:04 10° SW 20:42:10 14° SSW 20:42:10 14° SSW visible
27 Jun 6.5 19:40:32 10° SSW 19:45:31 25° SSE 19:45:31 25° SSE visible
